Location: 81360 Arifat, France
(43.7204°N, 2.3408°E)
Time: 03:07:24
(UTC+01:00)

ACS3 Solar Sail - Pass Details

Date: 19 October 2025
Orbit: 909 x 993 km, 97.3° (Epoch: 13 November)

Event Time Altitude Azimuth Distance (km) Brightness Sun altitude
Rises 06:23:14 0° 5° (N) 3,551 4.9 -20.0°
Reaches altitude 10° 06:25:46 10° 358° (N) 2,609 4.1 -19.5°
Maximum altitude 06:31:10 41° 291° (WNW) 1,311 2.0 -18.6°
Enters shadow 06:33:57 25° 239° (WSW) 1,763 2.7 -18.1°
